TimeMDT,TemperatureF,Dew PointF,Humidity,Sea Level PressureIn,VisibilityMPH,Wind Direction,Wind SpeedMPH,Gust SpeedMPH,PrecipitationIn,Events,Conditions,WindDirDegrees,DateUTC
12:35 AM,55.4,23.0,29,30.05,10.0,ESE,5.8,-,N/A,,Scattered Clouds,120,2013-05-06 06:35:00
12:55 AM,55.4,23.0,29,30.06,10.0,ESE,6.9,-,N/A,,Mostly Cloudy,110,2013-05-06 06:55:00
1:15 AM,55.4,26.6,33,30.05,10.0,East,10.4,-,N/A,,Mostly Cloudy,90,2013-05-06 07:15:00
1:35 AM,55.4,26.6,33,30.05,10.0,East,8.1,-,N/A,,Mostly Cloudy,100,2013-05-06 07:35:00
1:55 AM,53.6,26.6,35,30.05,10.0,ESE,4.6,-,N/A,,Mostly Cloudy,120,2013-05-06 07:55:00
2:15 AM,53.6,26.6,35,30.04,10.0,ESE,6.9,-,N/A,,Scattered Clouds,110,2013-05-06 08:15:00
2:35 AM,55.4,26.6,33,30.04,10.0,SE,8.1,-,N/A,,Clear,130,2013-05-06 08:35:00
2:55 AM,55.4,28.4,36,30.04,10.0,ESE,6.9,-,N/A,,Clear,120,2013-05-06 08:55:00
3:15 AM,53.6,28.4,38,30.03,10.0,East,5.8,-,N/A,,Scattered Clouds,100,2013-05-06 09:15:00
3:35 AM,53.6,28.4,38,30.04,10.0,East,8.1,-,N/A,,Mostly Cloudy,90,2013-05-06 09:35:00
3:55 AM,53.6,28.4,38,30.03,10.0,East,8.1,-,N/A,,Overcast,90,2013-05-06 09:55:00
4:15 AM,53.6,28.4,38,30.03,10.0,East,9.2,-,N/A,,Overcast,90,2013-05-06 10:15:00
4:35 AM,53.6,28.4,38,30.03,10.0,ESE,4.6,-,N/A,,Mostly Cloudy,110,2013-05-06 10:35:00
4:55 AM,53.6,28.4,38,30.02,10.0,SSE,11.5,-,N/A,,Scattered Clouds,160,2013-05-06 10:55:00
5:15 AM,55.4,30.2,38,30.03,10.0,South,5.8,9.2,N/A,,Mostly Cloudy,170,2013-05-06 11:15:00
5:35 AM,53.6,30.2,41,30.02,10.0,East,5.8,-,N/A,,Mostly Cloudy,100,2013-05-06 11:35:00
5:55 AM,53.6,30.2,41,30.01,10.0,SE,5.8,9.2,N/A,,Mostly Cloudy,130,2013-05-06 11:55:00
6:15 AM,53.6,28.4,38,30.00,10.0,Calm,Calm,-,N/A,,Mostly Cloudy,0,2013-05-06 12:15:00
6:35 AM,51.8,30.2,44,30.02,10.0,North,4.6,-,N/A,,Clear,10,2013-05-06 12:35:00
6:55 AM,53.6,28.4,38,30.03,10.0,Calm,Calm,-,N/A,,Clear,0,2013-05-06 12:55:00
7:15 AM,51.8,28.4,41,30.03,10.0,Calm,Calm,-,N/A,,Clear,0,2013-05-06 13:15:00
7:35 AM,55.4,28.4,36,30.03,10.0,Calm,Calm,-,N/A,,Clear,0,2013-05-06 13:35:00
7:55 AM,53.6,30.2,41,30.04,10.0,East,3.5,-,N/A,,Clear,80,2013-05-06 13:55:00
8:15 AM,57.2,30.2,36,30.03,10.0,ESE,3.5,-,N/A,,Clear,110,2013-05-06 14:15:00
8:35 AM,59.0,30.2,34,30.03,10.0,Calm,Calm,-,N/A,,Scattered Clouds,0,2013-05-06 14:35:00
8:55 AM,60.8,32.0,34,30.03,10.0,SE,3.5,-,N/A,,Mostly Cloudy,140,2013-05-06 14:55:00
9:15 AM,60.8,32.0,34,30.03,10.0,SSE,5.8,-,N/A,,Scattered Clouds,160,2013-05-06 15:15:00
9:35 AM,60.8,32.0,34,30.03,10.0,West,5.8,-,N/A,,Clear,260,2013-05-06 15:35:00
9:55 AM,60.8,32.0,34,30.03,10.0,WSW,17.3,25.3,N/A,Thunderstorm,Thunderstorm,250,2013-05-06 15:55:00
10:15 AM,59.0,33.8,39,30.05,10.0,SW,15.0,19.6,N/A,,Mostly Cloudy,230,2013-05-06 16:15:00
10:35 AM,53.6,39.2,58,30.06,10.0,SSW,20.7,28.8,N/A,Rain,Light Rain,200,2013-05-06 16:35:00
10:55 AM,53.6,39.2,58,30.07,10.0,SSE,17.3,24.2,N/A,,Light Drizzle,160,2013-05-06 16:55:00
11:15 AM,51.8,41.0,67,30.08,10.0,SSW,15.0,-,N/A,,Drizzle,200,2013-05-06 17:15:00
11:35 AM,51.8,41.0,67,30.08,7.0,SSW,11.5,23.0,N/A,,Drizzle,210,2013-05-06 17:35:00
11:55 AM,53.6,41.0,62,30.08,10.0,SSW,17.3,23.0,N/A,,Light Drizzle,210,2013-05-06 17:55:00
12:15 PM,53.6,41.0,62,30.08,10.0,SW,15.0,20.7,N/A,Thunderstorm,Thunderstorm,220,2013-05-06 18:15:00
12:35 PM,51.8,41.0,67,30.09,10.0,SW,12.7,18.4,N/A,Thunderstorm,Overcast,230,2013-05-06 18:35:00
12:55 PM,51.8,41.0,67,30.09,10.0,SW,15.0,18.4,N/A,Rain-Thunderstorm,Light Thunderstorms and Rain,220,2013-05-06 18:55:00
1:15 PM,50.0,41.0,71,30.09,10.0,SW,13.8,20.7,N/A,Rain,Light Rain,230,2013-05-06 19:15:00
1:35 PM,50.0,42.8,76,30.09,10.0,SW,12.7,17.3,N/A,,Drizzle,230,2013-05-06 19:35:00
1:55 PM,50.0,42.8,76,30.10,10.0,WSW,9.2,-,N/A,Rain,Rain,240,2013-05-06 19:55:00
2:15 PM,48.2,42.8,82,30.10,10.0,WSW,4.6,-,N/A,Rain,Light Rain,240,2013-05-06 20:15:00
2:35 PM,48.2,42.8,82,30.10,10.0,SSW,6.9,-,N/A,,Light Drizzle,210,2013-05-06 20:35:00
2:55 PM,48.2,41.0,76,30.10,10.0,WSW,6.9,-,N/A,,Drizzle,240,2013-05-06 20:55:00
3:15 PM,46.4,41.0,81,30.10,10.0,West,5.8,-,N/A,Rain,Light Rain,260,2013-05-06 21:15:00
3:35 PM,46.4,41.0,81,30.10,10.0,Calm,Calm,-,N/A,,Overcast,0,2013-05-06 21:35:00
3:55 PM,46.4,41.0,81,30.10,10.0,SW,3.5,-,N/A,,Light Drizzle,230,2013-05-06 21:55:00
4:15 PM,46.4,42.8,87,30.10,10.0,NNE,4.6,-,N/A,Rain,Light Rain,30,2013-05-06 22:15:00
4:55 PM,48.2,42.8,82,30.08,10.0,Calm,Calm,-,N/A,Thunderstorm,Overcast,0,2013-05-06 22:55:00
5:15 PM,50.0,42.8,76,30.07,10.0,NE,4.6,-,N/A,,Scattered Clouds,50,2013-05-06 23:15:00
5:35 PM,50.0,41.0,71,30.07,10.0,North,3.5,-,N/A,,Scattered Clouds,10,2013-05-06 23:35:00
5:55 PM,51.8,42.8,71,30.06,10.0,NE,3.5,-,N/A,,Clear,40,2013-05-06 23:55:00
6:15 PM,51.8,41.0,67,30.06,10.0,NE,3.5,-,N/A,,Clear,50,2013-05-07 00:15:00
6:35 PM,51.8,41.0,67,30.05,10.0,ENE,5.8,-,N/A,,Clear,60,2013-05-07 00:35:00
6:55 PM,51.8,42.8,71,30.05,10.0,East,5.8,-,N/A,Thunderstorm,Clear,80,2013-05-07 00:55:00
7:15 PM,51.8,42.8,71,30.05,10.0,East,4.6,-,N/A,,Clear,80,2013-05-07 01:15:00
7:35 PM,51.8,41.0,67,30.06,10.0,East,5.8,-,N/A,Thunderstorm,Clear,80,2013-05-07 01:35:00
7:55 PM,50.0,41.0,71,30.06,10.0,East,4.6,-,N/A,Thunderstorm,Clear,90,2013-05-07 01:55:00
8:15 PM,46.4,41.0,81,30.06,10.0,Calm,Calm,-,N/A,Thunderstorm,Clear,0,2013-05-07 02:15:00
8:35 PM,46.4,41.0,81,30.06,10.0,ESE,4.6,-,N/A,,Scattered Clouds,110,2013-05-07 02:35:00
8:55 PM,46.4,41.0,81,30.07,10.0,Calm,Calm,-,N/A,,Scattered Clouds,0,2013-05-07 02:55:00
9:15 PM,48.2,41.0,76,30.08,10.0,South,3.5,-,N/A,Thunderstorm,Thunderstorm,170,2013-05-07 03:15:00
9:35 PM,46.4,41.0,81,30.09,10.0,ENE,4.6,-,N/A,,Mostly Cloudy,60,2013-05-07 03:35:00
9:55 PM,44.6,41.0,87,30.10,10.0,SE,4.6,-,N/A,Thunderstorm,Mostly Cloudy,130,2013-05-07 03:55:00
10:15 PM,46.4,41.0,81,30.12,10.0,WSW,6.9,-,N/A,,Light Drizzle,250,2013-05-07 04:15:00
10:35 PM,46.4,42.8,87,30.12,10.0,NNE,3.5,-,N/A,Thunderstorm,Thunderstorm,30,2013-05-07 04:35:00
10:55 PM,44.6,41.0,87,30.11,10.0,ENE,5.8,-,N/A,Thunderstorm,Thunderstorm,60,2013-05-07 04:55:00
11:15 PM,44.6,42.8,93,30.13,10.0,NNW,5.8,-,N/A,,Mostly Cloudy,340,2013-05-07 05:15:00
11:35 PM,44.6,41.0,87,30.13,10.0,North,4.6,-,N/A,,Mostly Cloudy,350,2013-05-07 05:35:00
11:55 PM,44.6,41.0,87,30.12,10.0,Calm,Calm,-,N/A,,Scattered Clouds,0,2013-05-07 05:55:00